TimeEEST,TemperatureF,Dew PointF,Humidity,Sea Level PressureIn,VisibilityMPH,Wind Direction,Wind SpeedMPH,Gust SpeedMPH,PrecipitationIn,Events,Conditions,WindDirDegrees,DateUTC
12:20 AM,77.0,60.8,57,29.77,-9999.0,West,5.8,-,N/A,,Clear,270,2013-08-21 21:20:00
12:50 AM,77.0,59.0,54,29.77,-9999.0,Calm,Calm,-,N/A,,Clear,0,2013-08-21 21:50:00
1:20 AM,77.0,59.0,54,29.77,-9999.0,Variable,2.3,-,N/A,,Clear,0,2013-08-21 22:20:00
1:50 AM,75.2,59.0,57,29.77,-9999.0,Calm,Calm,-,N/A,,Clear,0,2013-08-21 22:50:00
2:20 AM,75.2,60.8,61,29.77,-9999.0,NNE,3.5,-,N/A,,Clear,30,2013-08-21 23:20:00
2:50 AM,73.4,60.8,65,29.77,-9999.0,Calm,Calm,-,N/A,,Clear,0,2013-08-21 23:50:00
3:00 AM,73,60,55,29.60,6,Calm,Calm,,,,,,2013-08-22 00:00:00
3:20 AM,71.6,60.8,69,29.74,-9999.0,Calm,Calm,-,N/A,,Clear,0,2013-08-22 00:20:00
3:50 AM,71.6,59.0,64,29.74,-9999.0,Calm,Calm,-,N/A,,Clear,0,2013-08-22 00:50:00
4:20 AM,75.2,59.0,57,29.74,-9999.0,Variable,1.2,-,N/A,,Clear,0,2013-08-22 01:20:00
4:50 AM,75.2,57.2,53,29.74,-9999.0,NW,4.6,-,N/A,,Clear,310,2013-08-22 01:50:00
5:20 AM,73.4,57.2,57,29.74,-9999.0,Calm,Calm,-,N/A,,Clear,0,2013-08-22 02:20:00
5:50 AM,73.4,57.2,57,29.74,-9999.0,Calm,Calm,-,N/A,,Clear,0,2013-08-22 02:50:00
6:20 AM,73.4,57.2,57,29.77,-9999.0,Calm,Calm,-,N/A,,Clear,0,2013-08-22 03:20:00
6:50 AM,77.0,57.2,50,29.77,-9999.0,Calm,Calm,-,N/A,,Clear,0,2013-08-22 03:50:00
7:20 AM,78.8,55.4,44,29.77,-9999.0,Variable,1.2,-,N/A,,Clear,0,2013-08-22 04:20:00
7:50 AM,82.4,51.8,35,29.77,-9999.0,NNW,4.6,-,N/A,,Clear,340,2013-08-22 04:50:00
8:20 AM,86.0,50.0,29,29.77,-9999.0,NNW,8.1,-,N/A,,Clear,340,2013-08-22 05:20:00
8:50 AM,87.8,48.2,25,29.77,-9999.0,North,8.1,-,N/A,,Clear,350,2013-08-22 05:50:00
9:20 AM,89.6,48.2,24,29.80,-9999.0,North,5.8,18.4,N/A,,Clear,360,2013-08-22 06:20:00
9:50 AM,89.6,46.4,22,29.80,-9999.0,Variable,1.2,-,N/A,,Clear,0,2013-08-22 06:50:00
10:20 AM,91.4,42.8,18,29.80,-9999.0,Calm,Calm,-,N/A,,Clear,0,2013-08-22 07:20:00
10:50 AM,93.2,42.8,17,29.80,-9999.0,Variable,1.2,-,N/A,,Clear,0,2013-08-22 07:50:00
11:20 AM,93.2,42.8,17,29.80,-9999.0,Variable,2.3,-,N/A,,Clear,0,2013-08-22 08:20:00
11:50 AM,95.0,42.8,16,29.80,-9999.0,NNE,1.2,-,N/A,,Clear,20,2013-08-22 08:50:00
12:20 PM,95.0,41.0,15,29.77,-9999.0,Variable,2.3,16.1,N/A,,Clear,0,2013-08-22 09:20:00
12:50 PM,95.0,41.0,15,29.77,-9999.0,NNW,3.5,-,N/A,,Clear,330,2013-08-22 09:50:00
1:20 PM,95.0,39.2,14,29.77,-9999.0,ESE,3.5,-,N/A,,Clear,110,2013-08-22 10:20:00
1:50 PM,96.8,41.0,15,29.77,-9999.0,East,6.9,-,N/A,,Clear,90,2013-08-22 10:50:00
2:20 PM,95.0,44.6,18,29.77,-9999.0,Variable,2.3,-,N/A,,Clear,0,2013-08-22 11:20:00
2:50 PM,96.8,42.8,16,29.77,-9999.0,Variable,1.2,-,N/A,,Clear,0,2013-08-22 11:50:00
3:20 PM,96.8,42.8,16,29.77,-9999.0,West,4.6,-,N/A,,Clear,270,2013-08-22 12:20:00
3:50 PM,98.6,41.0,14,29.74,-9999.0,Calm,Calm,-,N/A,,Clear,0,2013-08-22 12:50:00
4:20 PM,96.8,44.6,17,29.74,-9999.0,WSW,4.6,-,N/A,,Clear,250,2013-08-22 13:20:00
4:50 PM,95.0,50.0,22,29.74,-9999.0,SW,6.9,-,N/A,,Clear,230,2013-08-22 13:50:00
5:20 PM,95.0,48.2,20,29.74,-9999.0,West,10.4,-,N/A,,Clear,260,2013-08-22 14:20:00
5:50 PM,95.0,50.0,22,29.74,-9999.0,West,11.5,-,N/A,,Clear,260,2013-08-22 14:50:00
6:20 PM,91.4,50.0,24,29.74,-9999.0,WSW,13.8,-,N/A,,Clear,240,2013-08-22 15:20:00
6:50 PM,89.6,53.6,29,29.74,-9999.0,WSW,12.7,-,N/A,,Clear,240,2013-08-22 15:50:00
7:20 PM,87.8,51.8,29,29.77,-9999.0,West,13.8,-,N/A,,Clear,260,2013-08-22 16:20:00
7:50 PM,86.0,51.8,31,29.77,-9999.0,WSW,11.5,-,N/A,,Clear,250,2013-08-22 16:50:00
8:20 PM,84.2,57.2,40,29.77,-9999.0,SW,9.2,-,N/A,,Clear,230,2013-08-22 17:20:00
8:50 PM,82.4,59.0,45,29.80,-9999.0,WSW,11.5,-,N/A,,Clear,240,2013-08-22 17:50:00
9:00 PM,83,58,32,29.63,6,WSW,11.5,,,,,240,2013-08-22 18:00:00
9:20 PM,80.6,59.0,48,29.80,-9999.0,WSW,10.4,-,N/A,,Clear,240,2013-08-22 18:20:00
9:50 PM,80.6,59.0,48,29.80,-9999.0,WSW,11.5,-,N/A,,Clear,250,2013-08-22 18:50:00
10:20 PM,78.8,60.8,54,29.80,-9999.0,West,6.9,-,N/A,,Clear,260,2013-08-22 19:20:00
10:50 PM,80.6,60.8,51,29.80,-9999.0,NW,3.5,-,N/A,,Clear,320,2013-08-22 19:50:00
11:20 PM,77.0,59.0,54,29.80,-9999.0,Calm,Calm,-,N/A,,Clear,0,2013-08-22 20:20:00
11:50 PM,77.0,59.0,54,29.83,-9999.0,Calm,Calm,-,N/A,,Clear,0,2013-08-22 20:50:00